Eufaula, AL

11:48 AM CDT on August 21, 2017 (GMT -0500)
Weedon

Weather History for KEUF - December, 2012

Change the Weather History Date:

Saturday, December 22, 2012

  Actual Average (KLSF) Record (KLSF)
Temperature  
Mean Temperature 42 °F -  
Max Temperature 57 °F 54 °F 75 °F (2011)
Min Temperature 28 °F 31 °F 19 °F (2005)
Degree Days  
Heating Degree Days 22    
Moisture  
Dew Point 18 °F    
Average Humidity 47    
Maximum Humidity 82    
Minimum Humidity 17    
Precipitation  
Precipitation 0.00 in - - ()
Sea Level Pressure  
Sea Level Pressure 30.27 in    
Wind  
Wind Speed 4 mph (WNW)    
Max Wind Speed 7 mph    
Max Gust Speed -    
Visibility 10 miles    
Events      
Averages and records for this station are not official NWS values.
T = Trace of Precipitation, MM = Missing Value Source: NWS Daily Summary

Daily Weather History Graph

Daily Weather History Graph

Search for Another Location

Airport or City:

Trip Planner

Search our weather history database for the weather conditions in past years. The results will help you decide how hot, cold, wet, or windy it might be!

Date:

Astronomy

Dec. 22, 2012 Rise Set
Actual Time 6:37 AM CST 4:41 PM CST
Civil Twilight 6:10 AM CST 5:08 PM CST
Nautical Twilight 5:40 AM CST 5:38 PM CST
Astronomical Twilight 5:10 AM CST 6:08 PM CST
Moon 12:48 PM CST (12/22) 1:33 AM CST (12/22)
Length of Visible Light 10h 57m
Length of Day
10h 03m
Waxing Gibbous, 74% of the Moon is Illuminated
Dec 22
Waxing Gibbous
Dec 28
Full
Jan 4
Last Quarter
Jan 11
New
Jan 18
First Quarter

Hourly Weather History & Observations

Time (CST) Temp. Windchill Dew Point Humidity Pressure Visibility Wind Dir Wind Speed Gust Speed Precip Events Conditions
12:58 AM 39.0 °F 34.0 °F 15.1 °F 38% 30.24 in 10.0 mi Variable 6.9 mph - N/A   Clear
1:58 AM 37.0 °F 33.3 °F 15.1 °F 41% 30.25 in 10.0 mi Variable 4.6 mph - N/A   Clear
2:58 AM 35.1 °F 32.2 °F 16.0 °F 46% 30.24 in 10.0 mi Variable 3.5 mph - N/A   Clear
3:58 AM 33.1 °F 30.0 °F 15.1 °F 48% 30.25 in 10.0 mi Variable 3.5 mph - N/A   Clear
4:58 AM 28.9 °F - 16.0 °F 58% 30.26 in 10.0 mi Calm Calm - N/A   Clear
5:58 AM 28.9 °F - 16.0 °F 58% 30.29 in 10.0 mi Calm Calm - N/A   Clear
6:58 AM 30.0 °F 26.5 °F 17.1 °F 59% 30.32 in 10.0 mi West 3.5 mph - N/A   Clear
7:58 AM 37.0 °F 33.3 °F 17.1 °F 44% 30.34 in 10.0 mi WNW 4.6 mph - N/A   Clear
8:58 AM 41.0 °F 37.1 °F 16.0 °F 36% 30.35 in 10.0 mi Variable 5.8 mph - N/A   Clear
9:58 AM 46.9 °F - 12.0 °F 24% 30.35 in 10.0 mi Variable 4.6 mph - N/A   Clear
10:58 AM 50.0 °F - 12.0 °F 22% 30.32 in 10.0 mi NNW 5.8 mph - N/A   Clear
11:58 AM 54.0 °F - 10.9 °F 18% 30.29 in 10.0 mi NW 6.9 mph - N/A   Clear
12:58 PM 55.9 °F - 10.9 °F 17% 30.26 in 10.0 mi Variable 4.6 mph - N/A   Clear
1:58 PM 57.9 °F - 12.9 °F 17% 30.25 in 10.0 mi WNW 4.6 mph - N/A   Clear
2:58 PM 57.9 °F - 15.1 °F 19% 30.24 in 10.0 mi NW 4.6 mph - N/A   Clear
3:58 PM 55.9 °F - 17.1 °F 22% 30.25 in 10.0 mi Variable 4.6 mph - N/A   Clear
4:58 PM 46.9 °F - 24.1 °F 41% 30.26 in 10.0 mi Calm Calm - N/A   Clear
5:58 PM 37.9 °F - 26.1 °F 62% 30.26 in 10.0 mi Calm Calm - N/A   Clear
6:58 PM 35.1 °F - 26.1 °F 70% 30.26 in 10.0 mi Calm Calm - N/A   Clear
7:58 PM 32.0 °F - 25.0 °F 75% 30.27 in 10.0 mi Calm Calm - N/A   Clear
8:58 PM 34.0 °F - 24.1 °F 67% 30.26 in 10.0 mi Calm Calm - N/A   Clear
9:58 PM 30.9 °F - 25.0 °F 79% 30.25 in 10.0 mi Calm Calm - N/A   Clear
10:58 PM 30.0 °F - 25.0 °F 82% 30.25 in 10.0 mi Calm Calm - N/A   Clear
11:58 PM 30.0 °F - 25.0 °F 82% 30.24 in 10.0 mi Calm Calm - N/A   Clear